Location: Middlebury
(44.0153°N, 73.1678°W)
Time: 17:52:57
(UTC-04:00)

ISS - Visible Passes

Search period start: 15 April 2024 00:00
Search period end: 25 April 2024 00:00
Orbit: 413 x 419 km, 51.6° (Epoch: 15 April)

Date Brightness Start Highest point End Pass type
(mag) Time Alt. Az. Time Alt. Az. Time Alt. Az.
19 Apr -0.9 05:00:15 10° SE 05:01:03 11° SE 05:01:50 10° ESE visible
21 Apr -2.1 04:57:05 10° SSW 04:59:57 27° SE 05:02:50 10° ENE visible
22 Apr -1.5 04:10:20 15° SSE 04:11:21 16° SE 04:13:32 10° E visible
23 Apr -3.7 04:56:22 16° SW 04:58:56 71° SE 05:02:15 10° ENE visible
24 Apr -3.0 04:09:26 35° S 04:10:09 41° SE 04:13:20 10° ENE visible
